Regional Weather Roundup
Issued by NWS

Home | Current Version | Previous Version | Text Only | Print | Product List | Glossary Off
Versions: 1 2 3 4 5 6 7 8 9 10 11 12 13 14 15 16 17 18 19 20 21 22 23 24 25 26 27 28 29 30 31 32 33 34 35 36 37 38 39 40 41 42 43 44 45 46 47 48 49 50

000
ASUS45 KBOU 231607
RWRCO

WEATHER ROUNDUP FOR COLORADO
NATIONAL WEATHER SERVICE DENVER/BOULDER CO
1000 AM MDT FRI JUN 23 2017

NOTE: "FAIR" INDICATES FEW OR NO CLOUDS BELOW 12000 FEET WITH NO
SIGNIFICANT WEATHER AND/OR OBSTRUCTIONS TO VISIBILITY.

COZ001>005-013-030-031-231700-
...NORTHWEST COLORADO...

CITY           SKY/WX    TMP DP  RH WIND       PRES   REMARKS
CRAIG          FAIR      63  34  33 VRB3      30.26F
HAYDEN         FAIR      59  36  41 SW5       30.27F
MEEKER         FAIR      62  43  49 CALM      30.25F
RABBIT EARS PA FAIR      50  32  50 W5        30.46S
STEAMBOAT SPGS FAIR      58  38  45 SW3       30.28S
WALDEN         FAIR      57  39  51 NW3       30.33F
$$

COZ006>008-011-231700-
...WEST CENTRAL VALLEYS...

CITY           SKY/WX    TMP DP  RH WIND       PRES   REMARKS
GRAND JUNCTION FAIR      80  34  19 VRB5      30.11S
MONTROSE       FAIR      74  31  20 NW7       30.19F
EAGLE          SUNNY     66  37  34 CALM      30.25F
RIFLE          FAIR      72  36  26 CALM      30.17F
DELTA          FAIR      78  31  18 E5        30.15S
NUCLA          FAIR      75  27  16 CALM      30.22S
$$

COZ017>023-064>068-231700-
...SOUTHWEST COLORADO...

CITY           SKY/WX    TMP DP  RH WIND       PRES   REMARKS
DURANGO        FAIR      79  31  17 SW6       30.17S
CORTEZ         FAIR      80  34  19 SE3       30.15F
PAGOSA SPRINGS FAIR      74  26  17 CALM      30.24F
TELLURIDE      FAIR      68  19  15 W8        30.40S
WOLF CREEK PAS FAIR      59  12  15 NW3       30.61S
$$

COZ009-010-012-014-032>034-037-058>063-231700-
...CENTRAL COLORADO...

CITY           SKY/WX    TMP DP  RH WIND       PRES   REMARKS
ASPEN          FAIR      67  37  33 N7        30.27F
BUENA VISTA    FAIR      65  42  42 SE7       30.32F
COPPER MTN     FAIR      55  27  33 S7        30.55S
BERTHOUD PASS  FAIR      45  32  61 NW21      30.55F
COTTONWOOD PAS FAIR      63  41  45 E6        30.43F
GUNNISON       FAIR      64  38  38 VRB3      30.29F
KREMMLING      NOT AVBL
LEADVILLE      FAIR      58  32  37 S13       30.39F
MONARCH PASS   FAIR      50  41  71 NE12      30.66S
SALIDA         FAIR      65  51  59 E14G24    30.38F
SUNLIGHT       FAIR      54  30  40 CALM      30.52S
WILKERSON PASS CLOUDY    45  41  87 SW7       30.54S FOG
$$

COZ069>075-231700-
...SAN LUIS VALLEY/SANGRE DE CRISTO MOUNTAINS...

CITY           SKY/WX    TMP DP  RH WIND       PRES   REMARKS
ALAMOSA        FAIR      70  48  45 SE9       30.24F
DEL NORTE      FAIR      69  39  32 E13       30.28S
LA VETA PASS   LGT RAIN  46  46 100 NE17      30.58F VSB 1/4
SAGUACHE       FAIR      72  34  25 S6        30.26F
$$

COZ035-036-038>040-231700-
...NORTHERN COLORADO FRONT RANGE...

CITY           SKY/WX    TMP DP  RH WIND       PRES   REMARKS
DENVER INTL AP CLOUDY    51  42  71 CALM      30.32F
DMNS CITY PARK   N/A     51  43  73 E13       30.32F
AURORA         CLOUDY    48  43  83 CALM      30.34F
FRONT RANGE AP CLOUDY    50  43  76 NE5       30.35S
ERIE MUNI ARPT CLOUDY    53  45  76 SE6       30.32F
BOULDER MUN AP CLOUDY    52  45  76 SE6       30.31F
CENTENNIAL     CLOUDY    47  45  93 E5        30.33F
BROOMFIELD     CLOUDY    50  46  87 SE8       30.33F
FORT COLLINS   CLOUDY    54  41  61 S6        30.31F
LONGMONT       CLOUDY    55  44  64 E8        30.33S
$$

COZ041-046-047-076>085-087-088-231700-
...PIKES PEAK/PALMER DIVIDE AND SOUTHERN FOOTHILLS...

CITY           SKY/WX    TMP DP  RH WIND       PRES   REMARKS
COLO. SPRINGS  PTSUNNY   53  43  68 N15       30.34F
A. F. ACADEMY  CLOUDY    47  43  87 N14       30.35F
SCHRIEVER AFB  NOT AVBL
CHEYENNE MTN   NOT AVBL
ELLICOTT       CLOUDY   N/A N/A N/A NE15      30.34R
FALCON           N/A     48  43  84 N9G20     30.37S
FORT CARSON    CLOUDY    50  45  81 N13       30.33R
LIMON          CLOUDY    52  42  69 N12       30.32R
MONUMENT HILL  CLOUDY    41  39  93 N5        30.39S FOG
CANON CITY     CLOUDY    57  52  82 E21       30.31R
WALSENBURG     CLOUDY    54  48  82 NE12      30.35R
TRINIDAD       LGT RAIN  55  52  89 NE9       30.30R FOG
$$

COZ042>045-048>051-090-091-231700-
...NORTHEAST COLORADO...

CITY           SKY/WX    TMP DP  RH WIND       PRES   REMARKS
GREELEY ARPT   CLOUDY    55  41  59 VRB3      30.31F
AKRON          CLOUDY    54  40  59 N12       30.28S
BURLINGTON     CLOUDY    58  46  64 N15G22    30.24S
WRAY           CLOUDY    63  43  48 N14       30.24S
YUMA           NOT AVBL
STERLING       CLOUDY    57  41  54 N5        30.26S
HOLYOKE        NOT AVBL
FORT MORGAN    CLOUDY    54  40  59 W3        30.31S
$$

COZ086-089-092>099-231700-
...SOUTHEAST COLORADO...

CITY           SKY/WX    TMP DP  RH WIND       PRES   REMARKS
PUEBLO         LGT RAIN  56  52  86 E12       30.31R
LA JUNTA       CLOUDY    60  46  59 E16       30.27R
LAMAR          CLOUDY    60  49  66 NE15      30.22R
SPRINGFIELD      N/A     66  44  45 NE24G32   30.21R
$$



USA.gov is the U.S. government's official web portal to all federal, state and local government web resources and services.